San Diego Montgomery, CA

3:59 AM PDT on June 28, 2017 (GMT -0700)
Montgomery

Weather History for KMYF - December, 2013

Change the Weather History Date:

Thursday, December 5, 2013

  Actual Average Record
Temperature  
Mean Temperature 52 °F 56 °F  
Max Temperature 57 °F 66 °F 76 °F (2008)
Min Temperature 44 °F 46 °F 38 °F (2011)
Degree Days  
Heating Degree Days 14 9  
Month to date heating degree days 44  
Since 1 July heating degree days 256  
Cooling Degree Days 0 0  
Month to date cooling degree days 0  
Year to date cooling degree days 842  
Growing Degree Days 2 (Base 50)    
Moisture  
Dew Point 36 °F    
Average Humidity 57    
Maximum Humidity 80    
Minimum Humidity 43    
Precipitation  
Precipitation 0.00 in 0.03 in 0.37 in (1998)
Month to date precipitation 0.14  
Year to date precipitation 11.02  
Sea Level Pressure  
Sea Level Pressure 30.03 in    
Wind  
Wind Speed 5 mph (SSE)    
Max Wind Speed 9 mph    
Max Gust Speed 21 mph    
Visibility 10 miles    
Events      
T = Trace of Precipitation, MM = Missing Value Source: NWS Daily Summary

Daily Weather History Graph

Daily Weather History Graph

Search for Another Location

Airport or City:

Trip Planner

Search our weather history database for the weather conditions in past years. The results will help you decide how hot, cold, wet, or windy it might be!

Date:

Astronomy

Dec. 05, 2013 Rise Set
Actual Time 6:36 AM PST 4:42 PM PST
Civil Twilight 6:09 AM PST 5:09 PM PST
Nautical Twilight 5:38 AM PST 5:39 PM PST
Astronomical Twilight 5:09 AM PST 6:09 PM PST
Moon 9:04 AM PST (12/5) 8:02 PM PST (12/5)
Length of Visible Light 10h 59m
Length of Day
10h 05m
Waxing Crescent, 11% of the Moon is Illuminated
Dec 5
Waxing Crescent
Dec 9
First Quarter
Dec 17
Full
Dec 25
Last Quarter
Jan 1
New

Hourly Weather History & Observations

Time (PST) Temp. Windchill Dew Point Humidity Pressure Visibility Wind Dir Wind Speed Gust Speed Precip Events Conditions
12:53 AM 53.1 °F - 36.0 °F 52% 29.97 in 10.0 mi SW 3.5 mph - N/A   Overcast
1:53 AM 53.1 °F - 33.1 °F 47% 29.97 in 10.0 mi WSW 5.8 mph - N/A   Overcast
2:53 AM 53.1 °F - 34.0 °F 48% 29.97 in 10.0 mi WSW 3.5 mph - N/A   Overcast
3:53 AM 48.9 °F - 37.0 °F 64% 29.97 in 10.0 mi East 5.8 mph - N/A   Mostly Cloudy
4:53 AM 48.9 °F - 39.9 °F 71% 29.97 in 10.0 mi SE 5.8 mph - 0.00 in   Overcast
5:53 AM 46.9 °F - 41.0 °F 80% 29.98 in 10.0 mi ESE 5.8 mph - 0.00 in   Mostly Cloudy
6:53 AM 48.9 °F - 42.1 °F 77% 30.00 in 10.0 mi SE 3.5 mph - N/A   Mostly Cloudy
7:53 AM 50.0 °F - 42.1 °F 74% 30.02 in 10.0 mi SE 5.8 mph - N/A   Scattered Clouds
8:53 AM 53.1 °F - 41.0 °F 64% 30.04 in 10.0 mi ESE 5.8 mph - N/A   Mostly Cloudy
9:53 AM 55.0 °F - 39.0 °F 55% 30.05 in 10.0 mi Variable 6.9 mph - N/A   Mostly Cloudy
10:53 AM 55.9 °F - 35.1 °F 45% 30.04 in 10.0 mi SW 9.2 mph - N/A   Overcast
11:53 AM 55.9 °F - 35.1 °F 45% 30.02 in 10.0 mi SW 9.2 mph - N/A   Mostly Cloudy
12:53 PM 57.0 °F - 35.1 °F 44% 30.01 in 10.0 mi WSW 9.2 mph 20.7 mph N/A   Scattered Clouds
1:53 PM 55.9 °F - 34.0 °F 44% 30.01 in 10.0 mi West 9.2 mph - N/A   Clear
2:53 PM 55.9 °F - 34.0 °F 44% 30.01 in 10.0 mi SW 9.2 mph - N/A   Partly Cloudy
3:53 PM 55.0 °F - 33.1 °F 43% 30.02 in 10.0 mi SSW 6.9 mph - N/A   Clear
4:53 PM 53.1 °F - 34.0 °F 48% 30.03 in 10.0 mi South 4.6 mph - N/A   Partly Cloudy
5:53 PM 51.1 °F - 35.1 °F 54% 30.05 in 10.0 mi Calm Calm - N/A   Partly Cloudy
6:53 PM 50.0 °F - 35.1 °F 57% 30.06 in 10.0 mi Calm Calm - N/A   Partly Cloudy
7:53 PM 48.9 °F - 36.0 °F 61% 30.08 in 10.0 mi East 3.5 mph - N/A   Mostly Cloudy
8:53 PM 48.0 °F - 35.1 °F 61% 30.09 in 10.0 mi East 3.5 mph - N/A   Clear
9:53 PM 48.0 °F - 34.0 °F 58% 30.11 in 10.0 mi East 4.6 mph - N/A   Clear
10:53 PM 46.9 °F - 34.0 °F 61% 30.11 in 10.0 mi East 4.6 mph - N/A   Clear
11:53 PM 44.1 °F 40.8 °F 34.0 °F 68% 30.11 in 10.0 mi East 5.8 mph - N/A   Clear